Volver al catálogo

COSMOS 1372

ActivoNavegaciónLEO
NORAD 13243·PAYLOAD·🇷🇺 Russia

Lanzado Jun 1, 1982 desde Baikonur Cosmodrome

Loading…

Próximos Pases (próximas 24 horas)

TLE

ActualizadoSource: Space-Track

Época: Sep 14, 2026, 14:08 UTC

1 13243U 82052A   26257.58948000 -.00000075  00000-0  12844-4 0  9992
2 13243  64.9049  14.9055 0051433 261.4824  98.0406 13.86116853658697

Sigue COSMOS 1372 en tiempo real con AllMySat

Download on the App Store